Change the Weather History Date:

Saturday, May 18, 2013

  Actual Average (KAPN) Record (KAPN)
Temperature  
Mean Temperature 50 °F 53 °F  
Max Temperature 60 °F 65 °F 90 °F (1962)
Min Temperature 40 °F 41 °F 22 °F (1925)
Degree Days  
Heating Degree Days 15 12  
Month to date heating degree days 265  
Since 1 July heating degree days 7824  
Cooling Degree Days 0 0  
Month to date cooling degree days 0  
Year to date cooling degree days 2  
Moisture  
Dew Point 42 °F    
Average Humidity 69    
Maximum Humidity 90    
Minimum Humidity 47    
Precipitation  
Precipitation 0.00 in 0.09 in 0.71 in (1980)
Month to date precipitation 1.48  
Year to date precipitation 8.71  
Sea Level Pressure  
Sea Level Pressure 30.19 in    
Wind  
Wind Speed 3 mph (ESE)    
Max Wind Speed 10 mph    
Max Gust Speed -    
Visibility 10 miles    
Events Rain    
T = Trace of Precipitation, MM = Missing Value Source: NWS Daily Summary

Daily Weather History Graph

Daily Weather History Graph

Search for Another Location

Airport or City:

Trip Planner

Search our weather history database for the weather conditions in past years. The results will help you decide how hot, cold, wet, or windy it might be!

Date:

Astronomy

May. 18, 2013 Rise Set
Actual Time 6:01 AM EDT 9:02 PM EDT
Civil Twilight 5:26 AM EDT 9:37 PM EDT
Nautical Twilight 4:41 AM EDT 10:22 PM EDT
Astronomical Twilight 3:47 AM EDT 11:17 PM EDT
Moon 1:45 PM EDT (5/18) 2:14 AM EDT (5/18)
Length of Visible Light 16h 11m
Length of Day
15h 01m
First Quarter, 55% of the Moon is Illuminated
May 18
First Quarter
May 25
Full
May 31
Last Quarter
Jun 8
New
Jun 16
First Quarter

Hourly Weather History & Observations

Time (EDT) Temp. Windchill Dew Point Humidity Pressure Visibility Wind Dir Wind Speed Gust Speed Precip Events Conditions
12:35 AM 50.0 °F - 39.4 °F 67% 30.22 in 10.0 mi South 3.5 mph - N/A   Mostly Cloudy
12:55 AM 50.0 °F - 38.8 °F 66% 30.22 in 10.0 mi Calm Calm - N/A   Overcast
1:15 AM 49.1 °F - 39.2 °F 69% 30.22 in 10.0 mi Calm Calm - N/A   Overcast
1:34 AM 48.0 °F - 38.7 °F 70% 30.21 in 10.0 mi Calm Calm - N/A   Mostly Cloudy
1:55 AM 44.6 °F - 38.5 °F 79% 30.21 in 10.0 mi Calm Calm - N/A   Scattered Clouds
2:15 AM 43.5 °F - 37.8 °F 80% 30.20 in 10.0 mi Calm Calm - N/A   Scattered Clouds
2:34 AM 45.9 °F - 41.0 °F 83% 30.20 in 10.0 mi Calm Calm - N/A   Clear
2:55 AM 45.1 °F - 40.1 °F 82% 30.20 in 10.0 mi Calm Calm - N/A   Clear
3:15 AM 43.5 °F - 39.4 °F 85% 30.20 in 10.0 mi Calm Calm - N/A   Clear
3:35 AM 45.5 °F 42.5 °F 41.0 °F 84% 30.22 in 10.0 mi SE 5.8 mph - N/A   Clear
3:55 AM 45.5 °F 44.2 °F 40.1 °F 81% 30.22 in 10.0 mi SSE 3.5 mph - N/A   Clear
4:15 AM 43.9 °F - 38.8 °F 82% 30.22 in 10.0 mi Calm Calm - N/A   Clear
4:35 AM 40.3 °F - 36.0 °F 85% 30.23 in 10.0 mi Calm Calm - N/A   Clear
4:55 AM 40.3 °F - 37.0 °F 88% 30.23 in 10.0 mi Calm Calm - N/A   Clear
5:15 AM 41.0 °F - 38.3 °F 90% 30.23 in 10.0 mi Calm Calm - N/A   Clear
5:35 AM 40.8 °F 38.8 °F 37.9 °F 89% 30.23 in 10.0 mi SE 3.5 mph - N/A   Clear
5:55 AM 44.6 °F 42.2 °F 39.6 °F 82% 30.22 in 10.0 mi East 4.6 mph - N/A   Clear
6:14 AM 45.3 °F 44.0 °F 39.2 °F 79% 30.22 in 10.0 mi SE 3.5 mph - N/A   Clear
6:35 AM 46.4 °F 44.3 °F 38.8 °F 75% 30.23 in 10.0 mi East 4.6 mph - N/A   Clear
6:55 AM 45.9 °F 44.6 °F 39.2 °F 78% 30.23 in 10.0 mi ENE 3.5 mph - N/A   Clear
7:15 AM 46.4 °F 43.5 °F 39.4 °F 77% 30.23 in 7.0 mi ESE 5.8 mph - N/A   Clear
7:35 AM 46.8 °F - 39.4 °F 75% 30.23 in 10.0 mi ESE 4.6 mph - N/A   Clear
7:55 AM 47.8 °F - 39.4 °F 72% 30.23 in 10.0 mi SSE 3.5 mph - N/A   Clear
8:15 AM 49.5 °F - 39.4 °F 68% 30.23 in 10.0 mi Calm Calm - N/A   Clear
8:35 AM 51.3 °F - 40.3 °F 66% 30.24 in 10.0 mi ESE 4.6 mph - N/A   Mostly Cloudy
8:55 AM 52.7 °F - 40.6 °F 64% 30.24 in 10.0 mi SE 3.5 mph - N/A   Mostly Cloudy
9:15 AM 53.8 °F - 41.7 °F 64% 30.24 in 10.0 mi ESE 4.6 mph - N/A   Mostly Cloudy
9:35 AM 54.7 °F - 42.1 °F 62% 30.24 in 10.0 mi SE 4.6 mph - N/A   Overcast
9:54 AM 55.6 °F - 42.4 °F 61% 30.24 in 10.0 mi SSE 4.6 mph - N/A   Overcast
10:15 AM 56.7 °F - 43.0 °F 60% 30.24 in 10.0 mi SE 5.8 mph - N/A   Overcast
10:35 AM 57.7 °F - 43.2 °F 58% 30.24 in 10.0 mi SSE 6.9 mph - N/A   Overcast
10:55 AM 59.0 °F - 42.8 °F 55% 30.24 in 10.0 mi SE 6.9 mph - N/A   Overcast
11:15 AM 59.4 °F - 42.4 °F 54% 30.24 in 10.0 mi SE 8.1 mph - N/A   Overcast
11:35 AM 60.3 °F - 41.0 °F 49% 30.23 in 10.0 mi SE 6.9 mph - N/A   Overcast
11:55 AM 60.8 °F - 40.3 °F 47% 30.23 in 7.0 mi ESE 10.4 mph - N/A   Overcast
12:15 PM 58.1 °F - 43.7 °F 59% 30.22 in 10.0 mi NE 4.6 mph - N/A Rain Light Rain
12:35 PM 55.9 °F - 43.9 °F 64% 30.22 in 10.0 mi ENE 3.5 mph - N/A   Light Drizzle
12:55 PM 57.7 °F - 43.0 °F 58% 30.22 in 10.0 mi East 5.8 mph - N/A   Overcast
1:15 PM 59.0 °F - 43.5 °F 56% 30.20 in 10.0 mi East 6.9 mph - N/A   Overcast
1:34 PM 58.6 °F - 44.6 °F 60% 30.20 in 10.0 mi ENE 4.6 mph - N/A   Overcast
1:55 PM 56.1 °F - 43.9 °F 64% 30.20 in 10.0 mi ENE 5.8 mph - N/A   Light Drizzle
2:15 PM 55.8 °F - 45.1 °F 67% 30.19 in 10.0 mi East 4.6 mph - N/A Rain Light Rain
2:35 PM 57.2 °F - 45.9 °F 66% 30.19 in 10.0 mi ENE 4.6 mph - N/A   Light Drizzle
3:15 PM 56.3 °F - 47.5 °F 72% 30.18 in 10.0 mi ENE 3.5 mph - N/A Rain Light Rain
3:35 PM 55.0 °F - 47.8 °F 77% 30.18 in 10.0 mi Calm Calm - N/A   Overcast
3:55 PM 54.5 °F - 47.8 °F 78% 30.18 in 10.0 mi Calm Calm - N/A   Overcast
4:15 PM 56.3 °F - 47.7 °F 73% 30.17 in 10.0 mi ESE 5.8 mph - N/A Rain Light Rain
4:35 PM 57.2 °F - 47.3 °F 69% 30.16 in 10.0 mi SE 6.9 mph - N/A   Overcast
4:54 PM 57.2 °F - 46.2 °F 67% 30.15 in 10.0 mi ESE 6.9 mph - N/A   Overcast
5:15 PM 56.7 °F - 45.7 °F 67% 30.15 in 10.0 mi SE 5.8 mph - N/A   Overcast
5:35 PM 56.3 °F - 45.7 °F 68% 30.15 in 10.0 mi SE 5.8 mph - N/A   Overcast
6:15 PM 56.5 °F - 46.0 °F 68% 30.14 in 10.0 mi SE 4.6 mph - N/A   Overcast
6:35 PM 56.5 °F - 45.9 °F 68% 30.13 in 10.0 mi SE 6.9 mph - N/A   Overcast
6:55 PM 56.5 °F - 45.5 °F 67% 30.13 in 10.0 mi SE 6.9 mph - N/A   Overcast
7:15 PM 56.8 °F - 45.0 °F 64% 30.12 in 10.0 mi SE 5.8 mph - N/A   Overcast
7:35 PM 57.2 °F - 45.0 °F 64% 30.12 in 10.0 mi SE 5.8 mph - N/A   Overcast
7:55 PM 57.2 °F - 44.6 °F 63% 30.13 in 10.0 mi SE 3.5 mph - N/A   Overcast
8:15 PM 56.8 °F - 43.9 °F 62% 30.12 in 10.0 mi SSE 5.8 mph - N/A   Overcast
8:34 PM 56.7 °F - 43.0 °F 60% 30.12 in 10.0 mi SE 6.9 mph - N/A   Overcast
8:55 PM 56.5 °F - 43.0 °F 61% 30.12 in 10.0 mi SE 6.9 mph - N/A   Overcast
9:15 PM 56.3 °F - 43.2 °F 61% 30.10 in 10.0 mi SE 10.4 mph - N/A   Overcast
9:34 PM 56.1 °F - 43.0 °F 61% 30.10 in 10.0 mi SE 6.9 mph - N/A   Overcast
9:55 PM 55.8 °F - 43.0 °F 62% 30.11 in 10.0 mi SE 3.5 mph - N/A   Mostly Cloudy
10:15 PM 55.4 °F - 43.0 °F 63% 30.10 in 10.0 mi SE 4.6 mph - N/A   Scattered Clouds
10:35 PM 55.4 °F - 42.8 °F 63% 30.10 in 10.0 mi SE 4.6 mph - N/A   Scattered Clouds
10:55 PM 55.4 °F - 42.8 °F 63% 30.10 in 10.0 mi SE 5.8 mph - N/A   Clear
11:15 PM 54.7 °F - 43.3 °F 66% 30.09 in 10.0 mi SE 4.6 mph - N/A   Clear
11:35 PM 54.7 °F - 42.8 °F 64% 30.09 in 10.0 mi SE 5.8 mph - N/A   Scattered Clouds
11:55 PM 54.7 °F - 43.0 °F 65% 30.08 in 10.0 mi SE 5.8 mph - N/A   Mostly Cloudy